Tracking 19574 objects as of 16-Feb-2019
HD Live streaming from Space Station
objects crossing your sky now

ARIANE 42L R/B

Track ARIANE 42L R/B now!
10-day predictions


NORAD ID: 25586
Int'l Code: 1998-075B
Perigee: 215.4 km
Apogee: 17,228.8 km
Inclination: 7.5 °
Period: 307.6 minutes
Semi major axis: 15093 km
RCS: 21.3079 m2 (large)
Launch date: December 22, 1998
Source: France (FR)
Launch site: FRENCH GUIANA (FRGUI)

Note: This is a ROCKET BODY
aabbcc
Your satellite tracking list
Your tracking list is empty




NASA's NSSDC Master Catalog

Two Line Element Set (TLE):
1 25586U 98075B   19046.65716509 +.00033373 +00000-0 +11005-2 0  9992
2 25586 007.5025 083.8356 5636154 063.4539 342.9270 04.68204389257432
Source of the keplerian elements: AFSPC